TimeHST,TemperatureF,Dew PointF,Humidity,Sea Level PressureIn,VisibilityMPH,Wind Direction,Wind SpeedMPH,Gust SpeedMPH,PrecipitationIn,Events,Conditions,WindDirDegrees,DateUTC
12:53 AM,68.0,63.0,84,30.07,10.0,WSW,6.9,-,0.02,,Overcast,240,2011-10-21 10:53:00
1:53 AM,69.1,63.0,81,30.05,10.0,WSW,5.8,-,N/A,,Overcast,240,2011-10-21 11:53:00
3:53 AM,66.9,61.0,81,30.04,10.0,SW,6.9,-,N/A,,Clear,230,2011-10-21 13:53:00
4:53 AM,66.9,59.0,76,30.04,10.0,SW,6.9,-,N/A,,Clear,230,2011-10-21 14:53:00
5:53 AM,66.0,59.0,78,30.05,10.0,WSW,5.8,-,N/A,,Clear,240,2011-10-21 15:53:00
6:53 AM,66.9,57.9,73,30.07,10.0,WSW,8.1,-,N/A,,Overcast,240,2011-10-21 16:53:00
7:53 AM,73.0,59.0,61,30.08,10.0,SW,6.9,-,N/A,,Mostly Cloudy,230,2011-10-21 17:53:00
8:53 AM,79.0,61.0,54,30.10,10.0,South,4.6,-,N/A,,Scattered Clouds,170,2011-10-21 18:53:00
9:53 AM,79.0,64.9,62,30.10,10.0,ESE,6.9,-,N/A,,Mostly Cloudy,120,2011-10-21 19:53:00
10:36 AM,78.8,64.4,61,30.09,10.0,SE,3.5,-,N/A,,Mostly Cloudy,140,2011-10-21 20:36:00
10:53 AM,80.1,64.0,58,30.08,10.0,Variable,3.5,-,N/A,,Mostly Cloudy,0,2011-10-21 20:53:00
11:53 AM,82.0,64.9,56,30.06,10.0,ESE,9.2,-,N/A,,Scattered Clouds,110,2011-10-21 21:53:00
12:53 PM,82.0,66.9,60,30.04,10.0,East,10.4,19.6,N/A,,Scattered Clouds,100,2011-10-21 22:53:00
1:53 PM,82.0,64.9,56,30.02,10.0,ESE,11.5,-,N/A,,Scattered Clouds,110,2011-10-21 23:53:00
2:53 PM,79.0,66.0,64,30.01,10.0,East,12.7,-,N/A,,Scattered Clouds,100,2011-10-22 00:53:00
3:53 PM,78.1,66.9,68,30.02,10.0,SE,15.0,-,N/A,,Mostly Cloudy,130,2011-10-22 01:53:00
4:53 PM,78.1,66.0,66,30.04,10.0,SE,10.4,-,N/A,,Partly Cloudy,140,2011-10-22 02:53:00
5:53 PM,75.9,66.9,74,30.06,10.0,SSE,3.5,-,N/A,,Scattered Clouds,160,2011-10-22 03:53:00
6:53 PM,73.9,66.9,79,30.08,10.0,SSW,3.5,-,N/A,,Mostly Cloudy,210,2011-10-22 04:53:00
7:53 PM,73.0,66.9,81,30.09,10.0,SW,4.6,-,N/A,,Scattered Clouds,220,2011-10-22 05:53:00
8:53 PM,72.0,66.0,81,30.10,10.0,SW,3.5,-,N/A,,Scattered Clouds,220,2011-10-22 06:53:00
9:53 PM,73.0,66.0,79,30.12,10.0,SW,3.5,-,N/A,,Overcast,230,2011-10-22 07:53:00
10:53 PM,73.0,66.0,79,30.11,10.0,WSW,4.6,-,N/A,,Overcast,240,2011-10-22 08:53:00
11:53 PM,73.0,66.0,79,30.11,10.0,WSW,4.6,-,0.00,,Overcast,240,2011-10-22 09:53:00